Location: Asarope
(8.2500°N, 4.4833°E)
Time: 01:12:14
(UTC+00:00)

Daily predictions for brighter satellites

Satellite Brightness Start Highest point End
(mag) Time Altitude Azimuth Time Altitude Azimuth Time Altitude Azimuth
Cosmos 2333 Rocket 4.2 02:37:36 21° N 02:37:36 21° N 02:39:25 10° N
Centaur AC-72 4.0 01:56:10 10° WSW 02:36:23 81° SSE 02:43:17 10° ENE
Cosmos 2219 Rocket 4.1 02:41:34 22° N 02:41:34 22° N 02:43:30 10° N
ATLAS 5 CENTAUR R/B 4.3 02:53:06 11° N 02:53:06 11° N 02:53:15 10° NNE
USA 234 3.5 02:49:08 10° NE 02:55:30 58° SE 02:55:34 58° SE
ATLAS 2A CENTAUR R/B 3.7 03:03:18 80° W 03:03:42 85° NNW 03:07:50 10° ENE
IDEFIX/ARIANE 42P 4.2 02:59:11 10° N 03:01:27 25° N 03:01:27 25° N
Cosmos 1680 Rocket 4.4 03:07:05 41° N 03:07:05 41° N 03:10:29 10° N
CZ-3A R/B 3.0 03:06:45 39° N 03:06:45 39° N 03:16:32 10° ENE
Cosmos 1980 3.8 03:09:33 71° NE 03:09:33 71° NE 03:14:41 10° NNE
Cosmos 2344 4.0 03:10:17 45° WNW 03:10:17 45° WNW 03:17:06 10° N
H-2A R/B 3.2 03:14:21 40° NNE 03:14:21 40° NNE 03:17:23 10° N
NOSS 3-3 (A) 4.5 03:16:22 40° NNW 03:16:22 40° NNW 03:20:34 10° N
NOSS 3-3 (C) 4.4 03:16:26 41° NNW 03:16:26 41° NNW 03:20:41 10° N
ADEOS 4.3 03:12:41 10° NNE 03:17:40 47° ESE 03:18:58 39° SE
USA 229 DEB 3.8 03:10:16 10° NNW 03:17:55 81° WSW 03:25:38 10° SSE
USA 229 3.8 03:10:22 10° NNW 03:18:01 82° WSW 03:25:45 10° SSE
NOSS 3-1 (C) 4.2 03:10:47 10° NNW 03:19:26 72° WSW 03:28:20 10° SSE
GEOS 3 Rocket 3.6 03:21:12 10° SSE 03:26:15 76° ENE 03:31:23 10° NNW
Cosmos 1151 Rocket 3.6 03:23:15 10° N 03:26:33 51° N 03:26:33 51° N
NOSS 3-1 (A) 4.3 03:18:59 10° NNW 03:27:41 83° ENE 03:36:41 10° SSE
Iridium 4 Rocket 3.4 03:33:04 50° SSE 03:34:10 70° E 03:39:07 10° N
Cosmos 1346 Rocket 3.9 03:36:11 37° NNW 03:36:11 37° NNW 03:38:41 10° N
Cosmos 2237 Rocket 2.1 03:34:33 60° W 03:34:43 61° WNW 03:40:18 10° N
Delta 7925 Rocket 4.1 03:34:06 48° WNW 03:35:34 60° NNW 03:43:03 10° NE
Cosmos 2239 Rocket 4.4 03:37:41 50° SW 03:39:12 65° W 03:45:27 10° N
Cosmos 1515 Rocket 4.1 03:35:19 10° N 03:39:32 55° E 03:42:13 21° SSE
Aurora 2 Rocket 3.6 03:44:28 24° N 03:44:28 24° N 03:46:41 10° NE
ARIANE 5 R/B 3.9 03:44:54 23° SSE 03:44:54 23° SSE 03:48:51 10° ESE
Delta 168 4.2 03:46:53 23° SE 03:46:53 23° SE 03:49:27 10° E
ARIANE 5 DEB (SYLDA) 3.9 03:44:47 43° SW 03:46:32 60° S 04:08:39 10° E
Ariane H10+ 3.4 03:47:35 47° SW 03:49:00 59° S 03:57:09 10° E
ARIANE 5 R/B 4.0 03:50:08 11° SSE 03:50:08 11° SSE 03:50:37 10° SE
Atlas Centaur 2 2.1 03:51:09 42° SW 03:53:13 77° SSE 03:58:14 10° ENE
PAYLOAD A 4.4 03:50:02 10° N 03:54:36 40° WNW 03:55:00 40° W
SL-16 R/B 2.6 03:52:49 17° S 03:57:10 61° ESE 04:02:43 10° NNE
EPKM 3.3 03:53:23 10° WNW 03:58:30 43° NNE 04:00:28 10° E
Cosmos 1844 Rocket 2.5 03:54:00 10° NNW 03:59:32 78° WSW 04:05:05 10° S
STARLINK-1152 4.4 04:02:52 25° S 04:04:42 44° ESE 04:08:29 10° NE
ARIANE 5 R/B 4.4 03:01:10 10° W 04:12:38 57° SSW 04:18:02 10° ESE
OAO 3 Rocket 3.9 04:11:19 26° W 04:13:20 40° NW 04:17:42 10° NE
Cosmos 1633 Rocket 3.7 04:09:37 10° S 04:13:52 56° E 04:18:06 10° NNE
CZ-4B R/B 4.0 04:09:36 10° N 04:14:05 79° W 04:17:54 14° SSW
Cosmos 1934 Rocket 4.3 04:13:08 21° SW 04:16:47 41° W 04:22:26 10° NNW
STARLINK-1176 3.8 04:14:44 23° SSW 04:17:09 70° ESE 04:21:15 10° NE
Skynet4D Del rocket 3.8 04:11:24 10° WNW 04:17:30 78° NNE 04:22:59 10° ESE
Cosmos 1666 Rocket 3.5 04:15:28 10° S 04:19:53 89° W 04:24:21 10° N
CZ-2C R/B 3.7 04:17:57 10° NNW 04:22:00 24° WNW 04:23:37 20° WSW
SAR-Lupe-4 4.1 04:23:16 16° SSW 04:25:40 36° W 04:28:57 10° NNW
STARLINK-1146 3.4 04:24:26 21° SW 04:26:58 87° NW 04:30:51 10° NE
STARLINK-1179 3.5 04:24:17 20° SW 04:27:04 86° NW 04:31:12 10° NNE
ALOS 2.2 04:24:53 10° N 04:29:31 77° WNW 04:34:10 10° SSW
Cosmos 2123 Rocket 4.1 04:23:36 10° N 04:29:50 84° E 04:36:03 10° S
STARLINK-1147 3.4 04:27:55 19° SW 04:30:36 79° WNW 04:34:29 10° NNE
Spot 2 4.1 04:26:53 10° N 04:30:57 60° WNW 04:35:14 10° SSW
ISO 3.2 04:29:52 18° SW 04:31:54 28° S 04:35:07 10° ESE
STARLINK-1173 3.6 04:29:09 18° SW 04:32:06 74° NW 04:36:13 10° NNE
Meteor 1-31 Rocket 3.5 04:32:24 10° NNW 04:35:52 33° WNW 04:38:52 13° SW
Cosmos 405 3.2 04:32:28 10° N 04:35:58 72° E 04:39:29 10° S
STARLINK-1185 3.6 04:35:14 16° SW 04:38:12 61° NW 04:42:03 10° NNE
Cosmos 2228 Rocket 3.5 04:35:45 10° NNW 04:40:02 42° W 04:44:22 10° SSW
Cosmos 1782 3.7 04:36:40 10° NNW 04:40:06 29° W 04:43:33 10° SSW
CZ-4B R/B 2.2 04:37:40 10° SSW 04:40:14 25° W 04:42:48 10° NW
SL-4 R/B 2.0 04:36:50 10° NW 04:41:12 68° SW 04:45:14 10° SSE
STARLINK-1186 3.7 04:38:55 15° SW 04:42:02 53° NW 04:45:52 10° NNE
ARIANE 5 R/B 2.8 04:43:04 11° SSW 04:44:00 14° S 04:45:17 10° SE
OAO 2 Rocket 3.4 04:41:13 12° SW 04:45:48 69° SE 04:50:40 10° ENE
STARLINK-1136 4.1 04:43:28 13° SW 04:46:58 46° NW 04:50:56 10° NNE
STARLINK-1196 4.1 04:46:26 12° SW 04:49:50 41° NW 04:53:33 10° NNE
Okean O Rocket 3.8 04:47:42 10° NE 04:51:22 27° E 04:55:02 10° SSE
GPS 2-15 Rocket1 3.2 04:47:58 11° WSW 04:52:33 86° SSE 04:57:24 10° ENE
Centaur D-1A AC-31 3.8 04:40:56 10° WNW 04:52:49 32° N 04:56:53 10° ENE
CZ-3 R/B 4.4 04:32:14 10° WNW 04:54:19 29° NNW 05:01:48 10° NE
Meteor 1-27 Rocket 4.4 04:53:34 10° N 04:58:58 60° E 05:04:25 10° SSE
Delta 2 Rocket 4.4 04:53:37 10° WSW 04:59:00 58° NW 05:04:38 10° NE
H-2A R/B 3.2 04:58:30 10° N 05:02:41 39° WNW 05:06:52 10° SW
ARIANE 5 R/B 4.4 04:48:24 10° W 05:51:11 69° S 05:56:11 10° ESE
